Flag for China

Past Weather in Kunming, Yunnan, China — Yesterday and Last 2 Weeks

Now
63 °F

Broken clouds.


Feels Like: 63 °F
Forecast: 71 / 61 °F
Wind: 3 mph from Southwest

Location: Kunming Airport
Current Time: Sep 26, 2020 at 9:03:43 am
Latest Report: Sep 26, 2020 at 8:00 am
Visibility: N/A
Pressure30.09 "Hg(24.03 "Hg at 1909m altitude)
Humidity: 100%
Dew Point: 63 °F
Location of KunmingLocation

Past Weather in Kunming — Graph

°F

Kunming Temperature Yesterday

Maximum temperature yesterday: 70 °F (at 2:00 pm)
Minimum temperature yesterday: 61 °F (at 2:00 am)
Average temperature yesterday: 64 °F

High & Low Weather Summary for the Past Weeks

 TemperatureHumidityPressure
High73 °F (Sep 11, 4:00 pm)100% (Sep 11, 7:00 am)30.30 "Hg (Sep 11, 7:00 am)
Low54 °F (Sep 18, 7:00 am)69% (Sep 11, 4:00 pm)30.01 "Hg (Sep 16, 6:00 pm)
Average63 °F95%30.15 "Hg
* Reported Sep 11 7:00 am — Sep 26 7:00 am, Kunming. Weather by CustomWeather, © 2020

Note: Actual official high and low records may vary slightly from our data, if they occured in-between our weather recording intervals... More about our weather records

Kunming Weather History for the Previous 24 Hours

Scroll right to see more
 ConditionsComfort  
Time TempWeatherWind HumidityBarometerVisibility
7:00 am
Sat, Sep 26
63 °FSprinkles. More clouds than sun.6 mph100%30.09 "HgN/A
6:00 am63 °FMostly cloudy.3 mph100%30.07 "HgN/A
5:00 am63 °FPartly cloudy.3 mph100%30.07 "HgN/A
4:00 am63 °FPartly cloudy.8 mph100%30.07 "HgN/A
3:00 am63 °FPartly cloudy.8 mph100%30.09 "HgN/A
2:00 am63 °FPartly cloudy.6 mph100%30.09 "HgN/A
1:00 am63 °FPassing clouds.8 mph100%30.12 "HgN/A
12:00 am63 °FPassing clouds.6 mph100%30.12 "HgN/A
11:00 pm
Fri, Sep 25
63 °FPassing clouds.6 mph100%30.12 "HgN/A
10:00 pm63 °FPassing clouds.10 mph100%30.09 "HgN/A
9:00 pm63 °FPartly cloudy.10 mph100%30.07 "HgN/A
8:00 pm64 °FPartly cloudy.8 mph100%30.04 "HgN/A
7:00 pm64 °FScattered clouds.8 mph100%30.04 "HgN/A
6:00 pm66 °FScattered clouds.8 mph100%30.04 "HgN/A
5:00 pm70 °FBroken clouds.15 mph83%30.01 "HgN/A
4:00 pm70 °FBroken clouds.13 mph83%30.04 "HgN/A
3:00 pm70 °FBroken clouds.17 mph83%30.04 "HgN/A
2:00 pm70 °FScattered clouds.15 mph88%30.07 "HgN/A
1:00 pm68 °FBroken clouds.15 mph94%30.09 "HgN/A
12:00 pm68 °FBroken clouds.13 mph94%30.09 "HgN/A
11:00 am66 °FBroken clouds.10 mph100%30.12 "HgN/A
10:00 am64 °FBroken clouds.13 mph100%30.12 "HgN/A
9:00 am63 °FMore clouds than sun.13 mph100%30.12 "Hg4 mi
Weather by CustomWeather, © 2020

See weather overview